This demonstration page uses our WeatherBlox Daily Observations layout. Learn more.

Left ArrowRight Arrow

41.86663, -103.66717

Hourly Observations for March 22, 2018

Temp ( °F °C ) Dew Point ( °F °C ) Humidity (%) Winds ( mph kmh ) Pressure ( in mb ) Visibility ( mi km ) Precip ( " mm )
12:53 am 00:53 Clear 37 2.8 30 -1.1 76 76 NE 3 6 30.01 1016 10 16 N/A
1:53 am 01:53 Clear 36 2.2 29 -1.7 76 76 NNW 3 6 30.01 1016 10 16 N/A
2:53 am 02:53 Clear 35 1.7 29 -1.7 78 78 N N/A 30.02 1017 10 16 N/A
3:53 am 03:53 Clear 33 0.6 28 -2.2 82 82 N N/A 30.01 1016 10 16 N/A
4:53 am 04:53 Clear 30 -1.1 27 -2.8 88 88 N 3 6 30.04 1017 10 16 N/A
5:53 am 05:53 Clear 33 0.6 29 -1.7 85 85 N N/A 30.04 1017 10 16 N/A
6:53 am 06:53 Clear 31 -0.6 28 -2.2 89 89 NNW 6 9 30.06 1018 10 16 N/A
7:53 am 07:53 Sunny 34 1.1 31 -0.6 89 89 N N/A 30.07 1018 10 16 N/A
8:53 am 08:53 Sunny 44 6.7 34 1.1 68 68 N N/A 30.06 1018 10 16 N/A
9:53 am 09:53 Sunny 53 11.7 36 2.2 52 52 N N/A 30.04 1017 10 16 N/A
10:53 am 10:53 Sunny 59 15 33 0.6 38 38 SW 5 7 30.03 1017 10 16 N/A
11:53 am 11:53 Sunny 63 17.2 32 undefined 31 31 VRB 5 7 30.00 1016 10 16 N/A
12:53 pm 12:53 Mostly Cloudy 67 19.4 32 undefined 27 27 VRB 3 6 29.98 1015 10 16 N/A
1:53 pm 13:53 Mostly Cloudy 69 20.6 33 0.6 26 26 VRB 5 7 29.96 1014 10 16 N/A
2:53 pm 14:53 Cloudy 70 21.1 34 1.1 27 27 SE 10 17 29.92 1013 10 16 N/A
3:53 pm 15:53 Mostly Cloudy 70 21.1 33 0.6 26 26 SE 10 17 29.91 1013 10 16 N/A
4:53 pm 16:53 Cloudy 68 20 33 0.6 27 27 ESE 10 17 29.90 1013 10 16 N/A
5:53 pm 17:53 Cloudy 66 18.9 35 1.7 32 32 E 12 19 29.88 1012 10 16 N/A
6:53 pm 18:53 Cloudy 62 16.7 35 1.7 37 37 E 12 19 29.90 1013 10 16 N/A
7:53 pm 19:53 Cloudy 61 16.1 35 1.7 38 38 undefined N/A 29.88 1012 10 16 N/A
8:53 pm 20:53 Cloudy 60 15.6 35 1.7 39 39 ESE 15 24 29.88 1012 10 16 N/A
9:53 pm 21:53 Cloudy 58 14.4 35 1.7 42 42 ESE 10 17 29.85 1011 10 16 N/A
10:53 pm 22:53 Cloudy 57 13.9 35 1.7 44 44 E 16 26 29.84 1011 10 16 N/A
11:53 pm 23:53 Cloudy 55 12.8 36 2.2 49 49 undefined N/A 29.82 1010 10 16 N/A

Powered by AerisWeather